Theta_e
290 291 291 291 290 291 291 292 288 291 291 295 299 301 303 306 308 310 313 329 330 327 321 323 328 329 329 328 329 328 326 324 323 324 325 324 321 321 320 320 319 317 314 311
288 292 292 290 292 293 293 293 293 294 293 300 303 304 304 305 309 311 317 324 325 326 326 324 326 327 325 325 325 323 321 321 322 322 321 319 319 319 319 318 317 315 312 308
285 293 292 286 291 293 294 296 296 292 297 301 302 303 304 307 307 312 321 322 323 322 321 321 324 326 324 323 323 321 320 320 320 319 318 318 318 318 318 317 316 312 308 303
284 290 282 289 298 297 296 298 300 300 301 302 303 304 307 310 310 311 318 318 319 319 319 320 322 322 323 322 321 320 319 318 318 318 317 318 317 317 317 317 315 312 309 303
285 285 290 292 292 291 291 293 300 300 301 302 304 305 305 309 317 317 317 318 319 320 319 320 321 322 321 321 322 320 318 318 317 317 316 316 316 315 315 314 312 310 310 307
286 286 282 286 292 298 299 287 295 295 299 302 301 298 297 305 310 311 314 317 318 320 319 320 321 322 320 320 319 317 317 316 317 317 316 315 316 315 315 313 310 307 303 304
287 288 288 289 292 299 287 287 292 296 302 302 299 300 303 307 309 311 313 315 318 320 320 321 322 320 318 317 315 316 317 317 316 317 315 315 315 315 312 310 309 307 305 302
286 284 282 292 292 284 290 293 295 301 301 300 300 301 303 305 307 309 310 313 316 315 316 318 318 318 315 314 315 316 315 314 314 314 314 314 314 314 313 312 310 308 307 303
285 285 292 292 290 294 296 300 300 300 300 301 299 300 303 304 307 308 311 312 314 314 313 314 316 316 312 313 314 314 313 312 313 313 313 314 313 313 312 314 310 307 304 298
287 290 290 291 293 295 299 300 300 300 300 300 298 299 301 303 305 306 308 309 311 310 310 310 314 313 313 313 313 312 311 310 306 299 300 301 298 295 294 300 301 300 298 296
287 291 290 292 292 295 298 300 299 300 300 300 300 299 300 301 304 306 308 309 309 308 308 309 311 312 312 312 312 308 303 300 297 295 292 289 289 292 289 289 293 293 291 290
285 288 288 290 293 297 296 297 299 298 298 299 300 300 301 301 303 305 306 307 307 308 309 309 310 310 309 309 307 303 300 298 295 293 291 290 288 288 289 289 289 288 289 290
288 292 292 293 294 298 296 297 299 298 298 298 300 301 301 302 303 304 305 306 307 308 308 307 307 306 307 309 307 303 299 298 297 296 295 293 291 290 288 289 289 289 288 289
292 293 291 292 291 297 296 297 299 299 300 300 301 302 302 302 304 304 304 306 308 308 306 306 306 306 307 307 306 304 303 299 301 300 298 297 296 296 296 294 292 291 289 291
291 293 292 294 295 296 296 296 295 296 297 298 300 300 301 301 301 302 305 307 307 306 306 306 305 306 307 308 307 306 305 304 304 304 302 301 300 299 298 298 297 295 293 290
291 291 292 291 293 294 294 293 292 294 296 297 297 299 300 301 302 303 304 306 304 303 304 305 304 305 307 307 304 302 301 297 299 300 300 300 299 297 296 295 294 294 293 294
290 288 289 290 292 292 293 294 293 294 296 296 297 299 300 300 301 301 302 302 303 304 304 304 304 304 304 304 302 301 301 302 297 300 300 299 298 296 295 294 293 292 292 292
293 293 293 293 293 292 293 294 294 294 295 298 299 298 298 299 298 299 301 302 301 302 303 303 303 302 303 303 302 301 301 301 300 299 299 298 298 298 297 296 295 293 293 292
294 293 294 294 294 294 294 295 296 297 297 297 298 297 299 299 300 300 301 300 299 298 300 302 297 302 303 301 301 301 300 300 299 298 298 295 297 297 296 295 295 294 294 293
293 294 294 295 296 296 295 296 297 296 298 297 297 296 296 298 299 299 299 297 298 300 303 302 303 303 303 300 297 300 299 298 298 298 298 297 296 295 294 292 294 293 294 293
293 294 294 295 295 297 297 297 297 296 297 298 297 297 297 299 300 299 297 295 299 301 302 299 301 301 300 298 299 300 299 298 297 298 297 296 296 296 295 295 294 293 293 293
294 294 295 295 295 295 297 299 298 297 297 298 299 300 300 299 299 299 302 298 299 293 299 300 299 291 294 295 300 300 300 299 299 298 297 296 296 295 295 294 294 293 293 293
294 295 295 295 295 295 297 297 298 298 298 298 298 298 298 299 300 298 295 300 300 295 299 296 287 286 286 301 300 300 300 299 299 298 297 297 296 296 295 294 294 294 293 292
295 297 296 297 297 296 295 296 298 299 299 299 300 300 298 296 298 299 299 293 290 295 296 294 290 286 292 300 300 299 299 299 298 298 297 292 296 295 295 295 293 293 294 293
298 298 298 297 296 295 296 297 298 300 300 301 300 301 302 301 298 298 298 295 290 294 295 286 287 288 300 299 300 299 298 298 298 297 298 298 297 296 296 295 294 294 294 294
299 297 297 298 298 297 297 297 296 297 298 298 298 299 300 300 299 298 297 294 296 293 296 296 298 299 299 299 299 299 298 297 298 296 296 297 296 295 294 294 294 294 294 294
300 298 299 297 297 297 298 297 296 296 297 298 297 298 299 298 298 297 294 296 295 297 298 298 298 297 299 299 299 298 298 299 295 298 297 297 297 297 298 298 297 296 294 293
Wind_Speed
21 26 24 24 20 21 21 18 15 16 5 7 11 15 16 18 23 19 17 24 21 21 16 20 11 16 23 16 19 19 22 24 21 18 17 16 18 15 14 14 13 13 13 12
24 22 18 22 21 21 22 21 17 17 11 14 8 10 16 17 21 26 8 21 23 22 21 18 20 15 19 23 21 21 23 21 19 17 18 18 16 15 15 14 13 14 14 13
9 14 9 3 10 18 17 18 15 15 12 10 5 7 15 11 16 18 22 20 22 21 21 18 17 19 22 20 22 23 22 19 18 18 19 18 16 16 15 14 13 14 13 12
10 14 2 3 21 19 18 8 12 4 5 4 4 5 12 13 15 20 25 19 21 19 20 18 17 19 22 21 21 23 21 19 18 19 19 17 17 16 14 12 12 12 12 12
5 5 4 9 19 13 11 9 16 14 2 3 4 3 5 18 11 7 19 17 19 20 22 19 19 19 22 21 20 20 20 19 19 19 18 17 16 15 13 11 12 11 11 12
5 6 7 6 24 20 17 3 19 20 19 8 3 4 3 11 14 13 15 19 21 23 21 19 16 20 22 21 19 19 19 19 19 18 17 17 16 14 13 12 11 10 11 10
8 4 5 14 23 19 3 7 21 23 8 7 4 7 5 2 11 13 18 20 22 22 18 16 16 20 22 21 20 19 20 20 19 18 17 16 14 12 12 11 10 10 11 9
6 6 5 23 14 6 9 23 20 9 12 15 15 14 4 5 16 17 22 20 21 23 17 16 18 21 22 22 20 20 20 20 18 16 13 12 14 11 11 9 8 8 8 9
5 4 10 12 12 14 19 4 11 8 10 14 17 11 6 10 17 18 21 20 18 20 21 19 19 18 22 21 20 20 19 20 18 17 14 12 10 8 6 5 5 7 8 9
5 4 13 7 15 16 13 10 11 11 12 14 16 12 9 10 15 17 16 18 19 22 22 21 19 19 19 19 19 20 21 18 16 17 16 15 12 11 10 9 10 10 9 9
4 6 10 6 14 15 10 9 12 12 13 15 16 12 11 11 14 15 17 17 18 21 21 21 19 18 17 18 18 19 19 17 16 15 16 15 14 10 11 12 11 8 8 8
3 7 6 6 13 13 10 9 10 13 14 14 15 12 11 12 10 13 17 18 19 21 21 21 19 19 18 17 18 19 17 14 12 12 12 12 12 13 18 17 18 17 16 9
4 4 6 8 10 8 9 9 11 12 13 15 14 13 12 12 12 19 17 18 19 20 20 20 19 19 18 16 17 18 17 15 12 12 11 11 10 10 10 8 12 13 12 9
7 5 2 7 4 6 10 10 13 11 11 13 14 14 12 12 14 16 18 18 18 19 19 19 19 18 18 18 18 17 15 15 12 11 11 10 10 9 9 8 8 6 1 4
6 7 4 4 6 7 9 11 14 11 12 13 13 12 13 13 14 15 16 18 18 18 19 19 19 18 16 16 16 15 12 10 10 9 9 9 9 9 8 8 7 7 6 2
5 6 7 7 8 9 12 13 14 12 12 13 15 14 13 13 13 14 16 16 16 17 17 18 18 17 15 14 15 13 13 16 12 10 9 9 9 9 9 9 8 8 7 7
3 4 7 7 7 10 10 12 13 11 14 14 15 14 14 14 14 15 16 16 16 17 15 15 16 16 15 15 15 11 9 7 11 9 9 9 9 9 9 9 8 7 6 5
8 8 8 6 9 12 11 14 14 14 14 12 14 12 13 14 14 16 16 17 17 17 15 14 14 15 14 12 12 10 9 9 10 10 9 9 8 8 8 8 8 8 7 5
10 11 10 9 8 14 11 13 13 14 13 12 13 14 11 11 14 15 15 16 16 16 13 13 13 13 12 10 10 10 10 11 10 10 9 9 9 8 8 8 8 8 8 8
13 11 11 12 11 13 13 12 14 13 14 14 14 15 10 11 11 14 14 14 12 10 12 13 13 11 10 10 13 11 11 11 10 9 9 9 9 8 8 9 9 8 8 7
12 12 12 12 12 12 12 13 12 13 12 14 12 13 13 8 11 14 14 11 11 11 12 11 10 8 9 10 10 10 11 11 10 9 9 8 8 9 8 8 8 8 7 7
10 11 12 13 14 12 11 13 13 13 10 11 12 9 12 14 14 13 11 11 10 10 8 8 8 9 6 9 10 10 10 10 9 8 8 8 8 7 7 7 7 7 7 7
9 11 11 13 13 13 11 11 11 12 16 12 13 10 8 9 10 11 11 10 8 8 9 8 7 8 6 10 9 9 10 10 9 8 8 8 8 7 7 7 7 7 7 6
13 11 12 13 13 12 10 8 7 12 10 12 12 13 11 9 9 8 7 11 13 12 10 7 6 6 6 8 9 10 10 9 9 8 8 9 7 7 7 7 7 6 5 6
13 13 12 13 12 11 12 9 5 7 10 12 12 11 13 10 9 9 10 10 16 13 9 5 4 3 9 9 9 10 9 9 8 8 7 6 6 7 7 7 6 6 5 6
15 11 9 9 10 10 7 8 7 5 6 9 9 9 10 9 11 10 10 12 11 11 10 6 6 5 9 9 9 10 10 9 9 9 9 7 8 7 6 6 6 5 5 5
9 14 11 10 7 7 8 10 9 10 9 8 10 11 10 10 10 10 12 11 10 9 7 7 6 7 8 9 10 9 8 8 9 8 8 8 7 6 4 5 5 5 6 5
Wind_Direction
258 268 270 269 260 260 261 261 269 285 209 256 294 312 304 302 305 308 269 120 116 122 133 117 66 104 102 81 104 119 110 108 111 126 130 118 104 105 101 97 97 93 85 76
289 279 282 263 251 248 250 254 264 265 259 229 290 310 297 291 323 320 230 122 116 119 115 104 119 119 107 130 119 109 103 106 126 123 110 103 103 101 97 93 90 87 78 68
279 322 331 329 286 264 256 252 250 250 271 149 238 328 292 337 317 304 115 120 115 115 113 110 111 122 113 111 116 110 112 124 118 114 106 104 102 97 93 91 91 89 87 79
281 309 298 250 22 7 329 270 273 253 156 144 15 349 298 321 266 249 115 111 108 112 109 107 107 110 115 116 115 114 119 118 117 107 102 99 98 97 97 96 91 86 85 76
283 290 289 39 3 341 327 314 9 349 231 102 87 335 357 330 94 109 110 112 113 112 110 111 115 117 111 110 108 113 111 111 104 101 104 106 102 99 98 93 82 72 67 84
303 289 13 5 338 323 296 256 348 339 303 125 107 150 332 335 101 96 100 114 113 109 110 111 119 113 111 110 112 107 107 103 103 104 104 102 100 99 101 99 96 92 79 67
308 300 106 356 336 326 4 338 309 298 248 111 121 95 62 285 101 112 104 109 109 106 110 117 121 113 107 106 104 104 102 100 98 96 96 98 101 94 90 95 99 98 107 105
335 341 357 6 343 14 301 293 299 61 100 109 95 73 74 129 112 111 106 106 104 99 103 109 108 108 106 103 103 100 99 99 100 100 97 98 100 103 107 109 114 119 109 84
322 332 346 327 302 299 302 337 67 70 81 99 89 83 96 112 111 104 104 104 103 104 103 95 97 102 103 102 106 107 103 99 99 100 102 103 95 103 115 126 108 88 83 77
313 90 338 336 336 335 347 28 75 72 82 90 94 88 88 90 96 97 100 102 105 102 101 100 98 98 100 108 110 106 103 93 73 66 67 68 60 50 43 27 55 50 50 70
262 313 326 354 343 334 8 23 80 83 86 95 95 88 93 89 95 100 103 103 104 104 103 104 107 107 106 109 109 99 89 88 83 77 75 71 56 53 64 45 49 64 62 46
311 324 290 317 336 344 28 20 75 92 95 89 92 90 90 87 91 99 102 105 104 106 108 110 111 106 103 102 99 100 97 93 93 93 91 90 88 80 53 66 67 68 61 76
271 289 327 340 321 20 50 36 65 82 86 96 92 95 85 95 94 101 102 105 106 110 109 110 111 107 111 110 101 101 105 111 111 112 110 109 104 102 99 65 62 61 65 59
316 275 247 357 348 42 76 69 73 81 92 96 96 93 95 96 103 105 108 113 113 112 112 114 114 108 104 108 111 115 118 117 115 118 120 123 129 134 127 111 100 94 313 79
22 50 83 41 39 80 86 85 84 84 85 92 89 96 101 101 100 106 110 110 113 112 106 107 107 109 113 111 116 119 117 117 116 109 100 95 93 88 87 90 111 124 127 233
68 61 68 48 59 76 102 97 88 87 93 93 89 95 96 98 103 103 105 112 113 107 105 104 103 109 117 100 89 85 85 87 96 107 110 109 101 96 91 82 71 62 53 33
113 88 95 78 78 84 83 102 99 94 93 89 92 98 104 107 105 105 100 102 103 103 106 108 105 99 97 96 97 103 119 126 115 109 103 101 100 99 98 95 90 84 70 31
97 102 97 92 104 116 96 108 106 104 97 96 95 90 100 109 111 107 105 104 100 96 96 101 108 113 117 121 114 119 123 108 99 99 103 103 103 103 106 112 117 116 109 67
109 107 107 99 80 120 110 112 107 113 109 98 94 87 83 92 100 100 102 101 96 96 94 97 96 105 112 116 116 107 106 104 95 90 97 107 101 97 95 89 85 81 77 73
107 104 99 116 99 101 111 100 97 91 101 104 95 94 86 86 102 101 94 92 89 97 99 99 102 104 102 98 99 102 107 119 124 110 91 82 81 79 76 79 87 83 77 73
121 124 113 111 102 107 114 110 106 101 102 116 119 123 131 139 104 100 103 106 112 102 108 113 118 111 108 121 123 119 104 101 112 118 115 110 98 87 84 83 83 79 78 78
129 135 127 120 114 108 105 116 116 124 127 133 149 148 140 137 124 119 105 111 123 146 133 117 88 55 36 102 105 111 113 113 113 106 101 99 100 100 95 91 87 83 76 65
143 134 124 125 124 123 122 122 142 156 148 149 138 154 135 115 109 114 124 150 154 144 107 92 58 40 14 108 110 110 106 100 99 100 101 100 98 92 87 83 80 83 89 76
147 150 139 132 133 130 123 130 151 151 150 154 142 124 120 132 133 117 115 101 100 103 110 98 67 37 84 117 113 109 105 106 98 84 86 94 114 126 119 108 107 112 94 77
146 134 148 148 152 143 159 171 175 133 133 112 130 140 125 110 114 122 102 104 105 118 114 78 55 340 120 120 124 126 117 115 121 114 108 97 89 85 79 83 88 87 83 76
145 146 149 159 143 143 153 144 145 137 144 133 118 110 110 117 109 120 130 131 130 136 135 152 139 156 124 130 124 104 103 115 130 123 122 113 103 101 118 133 112 90 82 80
151 148 159 147 154 157 164 154 152 159 163 150 133 133 126 130 141 139 138 135 149 146 158 129 138 134 124 117 108 124 153 125 126 131 117 118 114 102 81 77 78 78 85 71